This is the latest recevied weather packets stored in our database for station/object KD0KHX-10. If no packets are shown the sender has not sent any weather packets the latest 10 day(s).
| Time | Temp. | Humidity | Pressure | Rain* | Wind** | Luminosity | Snow |
|---|---|---|---|---|---|---|---|
| 1778169603 | 17.78° C | 43% | 1007.5 hPa | 0 mm | - | - | - |
| 1778169303 | 17.78° C | 44% | 1007.5 hPa | 0 mm | - | - | - |
| 1778169003 | 17.78° C | 44% | 1007.6 hPa | 0 mm | - | - | - |
| 1778168703 | 17.22° C | 45% | 1007.6 hPa | 0 mm | - | - | - |
| 1778168408 | 17.22° C | 47% | 1007.6 hPa | 0 mm | - | - | - |
| 1778168103 | 16.67° C | 45% | 1007.6 hPa | 0 mm | - | - | - |
| 1778167803 | 16.67° C | 45% | 1007.7 hPa | 0 mm | - | - | - |
| 1778167773 | 16.67° C | 45% | 1007.7 hPa | 0 mm | - | - | - |
| 1778167203 | 15.56° C | 45% | 1007.7 hPa | 0 mm | - | - | - |
| 1778167173 | 15.56° C | 45% | 1007.7 hPa | 0 mm | - | - | - |
| 1778166874 | 15.56° C | 45% | 1007.7 hPa | 0 mm | - | - | - |
| 1778166303 | 15° C | 47% | 1007.6 hPa | 0 mm | - | - | - |
| 1778166003 | 15° C | 50% | 1007.7 hPa | 0 mm | - | - | - |
| 1778165973 | 15° C | 50% | 1007.8 hPa | 0 mm | - | - | - |
| 1778165403 | 13.89° C | 52% | 1007.6 hPa | 0 mm | - | - | - |
| 1778165237 | 13.89° C | 53% | 1007.8 hPa | 0 mm | - | - | - |
| 1778165073 | 13.89° C | 55% | 1007.9 hPa | 0 mm | - | - | - |
| 1778164637 | 13.33° C | 58% | 1007.8 hPa | 0 mm | - | - | - |
| 1778164203 | 12.22° C | 60% | 1007.8 hPa | 0 mm | - | - | - |
| 1778163903 | 11.67° C | 61% | 1007.8 hPa | 0 mm | - | - | - |
| 1778163603 | 11.11° C | 64% | 1007.5 hPa | 0 mm | - | - | - |
| 1778163303 | 10.56° C | 65% | 1007.6 hPa | 0 mm | - | - | - |
| 1778163138 | 10.56° C | 66% | 1007.7 hPa | 0 mm | - | - | - |
| 1778162703 | 10° C | 68% | 1008.2 hPa | 0 mm | - | - | - |
| 1778162403 | 9.44° C | 69% | 1008.2 hPa | 0 mm | - | - | - |
* Rain latest hour (hover to see other rain measurements)
** Current wind speed in m/s (hover to see current wind gust speed)